Location: Sungai Ketit
(2.6833°N, 113.2333°E)
Time: 19:45:50
(UTC+00:00)

Cosmos 1802 Rocket - Pass Details

Date: 23 May 2024
Orbit: 954 x 1010 km, 82.9° (Epoch: 19 June)

Event Time Altitude Azimuth Distance (km) Brightness Sun altitude
Rises 11:24:38 0° 352° (N) 3,716 7.5 -13.2°
Reaches altitude 10° 11:27:11 10° 350° (N) 2,763 6.8 -13.8°
Maximum altitude 11:33:29 69° 267° (W) 1,055 4.4 -15.2°
Drops below altitude 10° 11:39:44 10° 185° (S) 2,734 6.2 -16.7°
Sets 11:42:14 0° 182° (S) 3,675 6.8 -17.3°
